This is the latest recevied weather packets stored in our database for station/object KC3DGM. If no packets are shown the sender has not sent any weather packets the latest 10 day(s).
| Time | Temp. | Humidity | Pressure | Rain* | Wind** | Luminosity | Snow |
|---|---|---|---|---|---|---|---|
| 1777739174 | 3.33° C | 89% | 987.7 hPa | 0 mm | - | 81 W/m² | - |
| 1777738871 | 3.33° C | 89% | 987.6 hPa | 0 mm | - | 77 W/m² | - |
| 1777738568 | 3.33° C | 90% | 987.8 hPa | 0 mm | - | 112 W/m² | - |
| 1777738266 | 3.33° C | 90% | 987.7 hPa | 0 mm | - | 121 W/m² | - |
| 1777737964 | 3.33° C | 91% | 988 hPa | 0 mm | - | 95 W/m² | - |
| 1777737662 | 3.33° C | 91% | 987.9 hPa | 0 mm | - | 55 W/m² | - |
| 1777737360 | 2.78° C | 90% | 987.8 hPa | 0 mm | - | 55 W/m² | - |
| 1777737056 | 3.33° C | 90% | 988 hPa | 0 mm | - | 58 W/m² | - |
| 1777736752 | 3.33° C | 90% | 988 hPa | 0 mm | - | 89 W/m² | - |
| 1777736124 | 3.33° C | 90% | 987.7 hPa | 0 mm | - | 113 W/m² | - |
| 1777735822 | 3.33° C | 90% | 987.8 hPa | 0 mm | - | 135 W/m² | - |
| 1777735519 | 2.78° C | 90% | 987.7 hPa | 0 mm | - | 163 W/m² | - |
| 1777735216 | 2.78° C | 91% | 987.9 hPa | 0 mm | - | 166 W/m² | - |
| 1777734913 | 2.78° C | 91% | 987.9 hPa | 0 mm | - | 135 W/m² | - |
| 1777734610 | 2.78° C | 91% | 987.8 hPa | 0 mm | - | 125 W/m² | - |
| 1777734308 | 2.78° C | 91% | 988 hPa | 0 mm | - | 106 W/m² | - |
| 1777734003 | 2.78° C | 91% | 988 hPa | 0 mm | - | 94 W/m² | - |
| 1777733700 | 2.78° C | 90% | 987.9 hPa | 0 mm | - | 73 W/m² | - |
| 1777733397 | 2.22° C | 90% | 987.7 hPa | 0 mm | - | 62 W/m² | - |
| 1777733093 | 2.78° C | 91% | 987.9 hPa | 0 mm | - | 78 W/m² | - |
| 1777732790 | 2.78° C | 92% | 987.7 hPa | 0 mm | - | 79 W/m² | - |
| 1777732487 | 2.22° C | 92% | 987.6 hPa | 0 mm | - | 88 W/m² | - |
| 1777732184 | 2.22° C | 92% | 987.6 hPa | 1.78 mm | - | 98 W/m² | - |
| 1777731881 | 2.22° C | 92% | 987.6 hPa | 1.78 mm | - | 87 W/m² | - |
| 1777731578 | 1.67° C | 93% | 987.4 hPa | 0 mm | - | 74 W/m² | - |
* Rain latest hour (hover to see other rain measurements)
** Current wind speed in m/s (hover to see current wind gust speed)